Location: Observatoire
(46.1952°N, 5.3391°E)
Time: 06:26:34
(UTC+01:00)

Altair - Pass Details

Date: 21 February 2026
Orbit: 1502 x 1682 km, 47.2° (Epoch: 5 March)

Event Time Altitude Azimuth Distance (km) Brightness Sun altitude
Rises 04:44:22 0° 235° (SW) 4,625 - -29.5°
Reaches altitude 10° 04:47:23 10° 232° (SW) 3,647 - -29.0°
Exits shadow 04:53:15 44° 217° (SW) 1,986 7.7 -28.0°
Maximum altitude 04:56:26 68° 153° (SSE) 1,621 7.5 -27.5°
Drops below altitude 10° 05:05:43 10° 73° (ENE) 3,740 10.6 -25.9°
Sets 05:08:51 0° 71° (ENE) 4,749 11.4 -25.4°
